DW7889 Weather Reports


Display with metric or nautical units.
time (UTC)temp
F
wind
direction
speed
MPH
gust
MPH
rain 1hr
in
rain 24hr
in
rain mn
in
humidity
%
barometer
mb
20260510010529 45 301 5.0 11.0 0.00 0.00 0.00 81 1021.0
20260510010035 45 211 4.0 9.0 0.00 0.00 0.00 81 1021.0
20260510005540 45 207 2.0 5.0 0.00 0.00 0.00 81 1021.0
20260510005043 45 335 1.0 3.0 0.00 0.00 0.00 81 1021.1
20260510004527 45 316 1.0 3.0 0.00 0.00 0.00 81 1021.1
20260510004034 45 306 1.0 2.0 0.00 0.00 0.00 81 1021.1
20260510003541 45 329 0.0 2.0 0.00 0.00 0.00 80 1021.0
20260510003044 45 329 1.0 3.0 0.00 0.00 0.00 79 1021.0
20260510002527 46 330 1.0 4.0 0.00 0.00 0.00 79 1020.9
20260510002032 46 321 2.0 4.0 0.00 0.00 0.00 78 1020.9
20260510001541 46 335 1.0 3.0 0.00 0.00 0.00 77 1020.9
20260510001027 47 295 1.0 6.0 0.00 0.00 0.00 76 1020.8
20260510000550 47 316 3.0 7.0 0.00 0.00 0.00 75 1020.8
20260510000034 47 248 4.0 7.0 0.00 0.00 0.00 74 1020.8
20260509235540 47 356 3.0 6.0 0.00 0.00 0.00 74 1020.7
20260509235042 47 1 4.0 7.0 0.00 0.00 0.00 74 1020.5
20260509234526 47 354 4.0 7.0 0.00 0.00 0.00 73 1020.3
20260509234032 48 330 4.0 9.0 0.00 0.00 0.00 73 1020.3
20260509233536 48 6 5.0 8.0 0.00 0.00 0.00 73 1020.3
20260509233040 48 359 5.0 12.0 0.00 0.00 0.00 72 1020.2
20260509232604 48 360 6.0 12.0 0.00 0.00 0.00 72 1020.2
20260509232027 48 347 5.0 10.0 0.00 0.00 0.00 72 1020.2
20260509231551 48 345 6.0 9.0 0.00 0.00 0.00 73 1020.0
20260509231033 48 356 5.0 8.0 0.00 0.00 0.00 73 1019.9
20260509230557 48 4 4.0 8.0 0.00 0.00 0.00 73 1020.0
20260509230027 48 356 4.0 7.0 0.00 0.00 0.00 73 1020.1
20260509225531 48 20 5.0 9.0 0.00 0.00 0.00 73 1020.2
20260509225057 48 360 5.0 9.0 0.00 0.00 0.00 72 1020.3
20260509224540 48 348 5.0 8.0 0.00 0.00 0.00 73 1020.3
20260509224024 48 12 4.0 8.0 0.00 0.00 0.00 72 1019.9
20260509223530 48 319 5.0 8.0 0.00 0.00 0.00 72 1019.9
20260509223032 48 8 5.0 9.0 0.00 0.00 0.00 71 1019.7
20260509222535 49 316 5.0 9.0 0.00 0.00 0.00 71 1019.8
20260509222058 49 1 5.0 9.0 0.00 0.00 0.00 71 1019.8
20260509221543 49 1 5.0 10.0 0.00 0.00 0.00 70 1019.5
20260509221025 49 28 5.0 11.0 0.00 0.00 0.00 70 1019.5
20260509220528 49 1 5.0 11.0 0.00 0.00 0.00 70 1019.7
20260509220035 49 1 5.0 11.0 0.00 0.00 0.00 69 1019.5
20260509215538 50 1 4.0 9.0 0.00 0.00 0.00 69 1019.5
20260509215044 50 1 4.0 9.0 0.00 0.00 0.00 68 1019.3
20260509214528 50 356 5.0 9.0 0.00 0.00 0.00 68 1019.2
20260509214032 50 352 4.0 10.0 0.00 0.00 0.00 68 1019.1
20260509213534 50 316 6.0 10.0 0.00 0.00 0.00 67 1018.9
20260509213039 50 323 6.0 10.0 0.00 0.00 0.00 67 1018.9
20260509212525 50 1 7.0 10.0 0.00 0.00 0.00 67 1019.0
20260509212029 50 1 6.0 10.0 0.00 0.00 0.00 67 1019.0
20260509211041 50 359 6.0 11.0 0.00 0.00 0.00 66 1018.7
20260509210601 50 3 5.0 9.0 0.00 0.00 0.00 66 1018.5
20260509210028 51 359 5.0 11.0 0.00 0.00 0.00 65 1018.4
20260509205531 51 12 6.0 12.0 0.00 0.00 0.00 65 1018.4
20260509205035 51 303 6.0 12.0 0.00 0.00 0.00 65 1018.4
20260509204545 51 346 5.0 13.0 0.00 0.00 0.00 64 1018.5
20260509204047 51 1 5.0 13.0 0.00 0.00 0.00 64 1018.4
20260509203528 51 359 5.0 12.0 0.00 0.00 0.00 64 1018.3
20260509203051 51 1 5.0 12.0 0.00 0.00 0.00 64 1018.1
20260509202527 51 1 5.0 10.0 0.00 0.00 0.00 64 1018.1
20260509202052 51 341 5.0 11.0 0.00 0.00 0.00 63 1018.2
20260509201537 51 359 7.0 11.0 0.00 0.00 0.00 62 1018.1
20260509201040 51 351 6.0 11.0 0.00 0.00 0.00 62 1018.4
20260509200544 52 337 5.0 13.0 0.00 0.00 0.00 61 1018.3
20260509200047 52 21 6.0 13.0 0.00 0.00 0.00 61 1018.1
20260509195528 52 331 6.0 10.0 0.00 0.00 0.00 60 1018.3
20260509195032 52 1 6.0 10.0 0.00 0.00 0.00 60 1018.2
20260509194555 52 1 6.0 10.0 0.00 0.00 0.00 59 1018.2
20260509194037 52 359 6.0 15.0 0.00 0.00 0.00 59 1018.1
20260509193600 52 360 9.0 15.0 0.00 0.00 0.00 59 1018.2
20260509193025 52 324 6.0 13.0 0.00 0.00 0.00 59 1018.4
20260509192532 52 1 7.0 13.0 0.00 0.00 0.00 58 1018.3
20260509192035 52 334 6.0 13.0 0.00 0.00 0.00 58 1018.3
20260509191536 52 1 8.0 13.0 0.00 0.00 0.00 58 1018.1
20260509191038 52 354 7.0 12.0 0.00 0.00 0.00 57 1018.0
20260509190536 52 336 5.0 9.0 0.00 0.00 0.00 57 1018.2
20260509190042 52 309 4.0 11.0 0.00 0.00 0.00 57 1018.1
20260509185603 52 348 4.0 13.0 0.00 0.00 0.00 56 1017.9
20260509185024 52 359 7.0 14.0 0.00 0.00 0.00 56 1018.1
20260509184530 53 53 8.0 14.0 0.00 0.00 0.00 55 1018.2
20260509184053 53 343 7.0 15.0 0.00 0.00 0.00 55 1018.0
20260509183530 53 22 8.0 15.0 0.00 0.00 0.00 54 1017.9
20260509183032 53 302 5.0 13.0 0.00 0.00 0.00 55 1017.7
20260509182533 53 341 8.0 12.0 0.00 0.00 0.00 55 1017.7
20260509182055 53 323 5.0 12.0 0.00 0.00 0.00 56 1017.9
20260509181539 53 359 5.0 15.0 0.00 0.00 0.00 55 1018.0
20260509181042 53 321 8.0 15.0 0.00 0.00 0.00 55 1018.1
20260509180524 53 351 8.0 14.0 0.00 0.00 0.00 54 1018.0
20260509180031 53 1 6.0 12.0 0.00 0.00 0.00 55 1018.1
20260509175534 53 1 4.0 12.0 0.00 0.00 0.00 56 1018.1
20260509175035 53 37 7.0 13.0 0.00 0.00 0.00 55 1018.1
20260509174538 53 1 6.0 14.0 0.00 0.00 0.00 55 1018.0
20260509174040 53 8 7.0 14.0 0.00 0.00 0.00 55 1018.1
20260509173538 53 332 7.0 13.0 0.00 0.00 0.00 55 1018.1
20260509173041 53 318 7.0 12.0 0.00 0.00 0.00 54 1018.1
20260509172543 53 304 5.0 11.0 0.00 0.00 0.00 55 1018.0
20260509172028 53 334 7.0 16.0 0.00 0.00 0.00 54 1018.0
20260509171536 53 288 9.0 16.0 0.00 0.00 0.00 53 1018.1
20260509171039 54 8 4.0 14.0 0.00 0.00 0.00 54 1017.9
20260509170543 54 1 8.0 14.0 0.00 0.00 0.00 53 1018.1
20260509170026 54 332 7.0 11.0 0.00 0.00 0.00 53 1017.9
20260509165550 54 334 5.0 15.0 0.00 0.00 0.00 53 1017.6
20260509165034 54 359 6.0 15.0 0.00 0.00 0.00 52 1017.9
20260509164557 54 327 6.0 12.0 0.00 0.00 0.00 52 1018.0
20260509164037 55 351 6.0 16.0 0.00 0.00 0.00 51 1018.0
20260509163539 55 347 5.0 9.0 0.00 0.00 0.00 51 1018.1
20260509163042 55 1 5.0 12.0 0.00 0.00 0.00 51 1018.1
20260509162544 55 360 6.0 12.0 0.00 0.00 0.00 52 1018.1
20260509162026 55 341 6.0 12.0 0.00 0.00 0.00 51 1018.1
20260509161529 55 13 5.0 12.0 0.00 0.00 0.00 51 1018.3
20260509161032 54 307 7.0 15.0 0.00 0.00 0.00 51 1018.2
20260509160552 54 59 5.0 13.0 0.00 0.00 0.00 51 1018.4
20260509160039 54 359 7.0 13.0 0.00 0.00 0.00 52 1018.4
20260509155541 54 359 6.0 13.0 0.00 0.00 0.00 53 1018.6
20260509155043 54 18 5.0 13.0 0.00 0.00 0.00 51 1018.7
20260509154542 54 322 6.0 11.0 0.00 0.00 0.00 52 1018.5
20260509154045 54 1 5.0 13.0 0.00 0.00 0.00 53 1018.5
20260509153528 54 328 6.0 13.0 0.00 0.00 0.00 51 1018.4
20260509153050 53 1 4.0 10.0 0.00 0.00 0.00 54 1018.5
20260509152529 54 340 6.0 13.0 0.00 0.00 0.00 53 1018.6
20260509152034 54 354 4.0 9.0 0.00 0.00 0.00 54 1018.7
20260509151533 53 345 4.0 11.0 0.00 0.00 0.00 53 1018.7
20260509151036 53 6 4.0 11.0 0.00 0.00 0.00 53 1018.7
20260509150539 53 360 5.0 10.0 0.00 0.00 0.00 53 1018.7
20260509150047 53 340 6.0 10.0 0.00 0.00 0.00 52 1018.9
20260509145531 53 330 5.0 12.0 0.00 0.00 0.00 51 1019.0
20260509145035 53 349 4.0 12.0 0.00 0.00 0.00 53 1018.8
20260509144539 53 359 6.0 12.0 0.00 0.00 0.00 52 1018.8
20260509144044 53 1 5.0 10.0 0.00 0.00 0.00 50 1019.0
20260509143527 53 14 5.0 9.0 0.00 0.00 0.00 61 1019.3
20260509143031 52 1 6.0 9.0 0.00 0.00 0.00 62 1019.4
20260509142535 52 349 3.0 9.0 0.00 0.00 0.00 65 1019.3
20260509142039 52 354 4.0 11.0 0.00 0.00 0.00 66 1019.1
20260509141543 51 1 6.0 11.0 0.00 0.00 0.00 71 1019.4
20260509141044 51 1 5.0 10.0 0.00 0.00 0.00 72 1019.2
20260509140546 50 12 6.0 12.0 0.00 0.00 0.00 71 1019.0
20260509140029 50 359 8.0 12.0 0.00 0.00 0.00 73 1019.1
20260509135536 50 356 8.0 11.0 0.00 0.00 0.00 73 1019.2
20260509135058 50 1 6.0 11.0 0.00 0.00 0.00 73 1019.2
20260509134542 49 6 6.0 11.0 0.00 0.00 0.00 73 1019.3
20260509134044 49 334 7.0 12.0 0.00 0.00 0.00 72 1019.2
20260509133529 49 331 8.0 12.0 0.00 0.00 0.00 73 1019.1
20260509133032 49 34 8.0 12.0 0.00 0.00 0.00 74 1019.2
20260509132556 48 14 8.0 12.0 0.00 0.00 0.00 75 1019.3
20260509132039 49 8 7.0 11.0 0.00 0.00 0.00 77 1019.3
20260509131544 49 360 7.0 11.0 0.00 0.00 0.00 76 1019.1
20260509131106 48 357 6.0 11.0 0.00 0.00 0.00 76 1019.1
20260509130528 48 1 6.0 13.0 0.00 0.00 0.00 75 1019.3
20260509130031 48 360 9.0 13.0 0.00 0.00 0.00 74 1019.3
20260509125535 48 19 8.0 14.0 0.00 0.00 0.00 76 1019.2
20260509125056 48 15 8.0 15.0 0.00 0.00 0.00 74 1019.3
20260509124556 49 360 9.0 15.0 0.00 0.00 0.00 73 1019.1
20260509124038 49 350 4.0 10.0 0.00 0.00 0.00 69 1019.0
20260509123540 49 17 6.0 12.0 0.00 0.00 0.00 68 1018.9
20260509123029 49 349 8.0 12.0 0.00 0.00 0.00 63 1018.9
20260509122534 50 359 5.0 10.0 0.00 0.00 0.00 66 1019.0
20260509122056 50 8 5.0 10.0 0.00 0.00 0.00 64 1019.0
20260509121538 49 13 5.0 8.0 0.00 0.00 0.00 64 1019.1
20260509121040 49 4 4.0 9.0 0.00 0.00 0.00 64 1018.9
20260509120543 49 352 5.0 9.0 0.00 0.00 0.00 64 1018.9
20260509120028 49 359 3.0 6.0 0.00 0.00 0.00 65 1018.8
20260509115529 48 12 3.0 8.0 0.00 0.00 0.00 65 1018.5
20260509115051 48 9 2.0 8.0 0.00 0.00 0.00 67 1018.4
20260509114534 48 290 4.0 8.0 0.00 0.00 0.00 66 1018.1
20260509114037 47 315 3.0 5.0 0.00 0.00 0.00 67 1018.1
20260509113540 47 311 3.0 6.0 0.00 0.00 0.00 69 1018.2
20260509113103 47 307 4.0 0.0 0.00 0.00 0.00 71 1018.1
20260509112526 47 324 4.0 6.0 0.00 0.00 0.00 72 1018.4
20260509112034 47 274 3.0 6.0 0.00 0.00 0.00 72 1018.4
20260509111534 46 351 2.0 6.0 0.00 0.00 0.00 72 1018.4
20260509111037 47 313 3.0 4.0 0.00 0.00 0.00 73 1018.4
20260509110537 47 308 0.0 0.0 0.00 0.00 0.00 77 1018.1
20260509110024 46 359 0.0 2.0 0.00 0.00 0.00 77 1017.9
20260509105529 46 359 0.0 3.0 0.00 0.00 0.00 79 1018.0
20260509105031 46 289 1.0 3.0 0.00 0.00 0.00 80 1018.1
20260509104535 45 323 0.0 0.0 0.00 0.00 0.00 82 1018.1
20260509104101 45 272 0.0 2.0 0.00 0.00 0.00 83 1017.9
20260509103544 45 272 1.0 2.0 0.00 0.00 0.00 84 1017.7
20260509103044 44 272 1.0 3.0 0.00 0.00 0.00 85 1017.6
20260509102607 44 293 2.0 4.0 0.00 0.00 0.00 85 1017.5
20260509102048 43 293 2.0 4.0 0.00 0.00 0.00 86 1017.4
20260509101530 43 300 0.0 3.0 0.00 0.00 0.00 87 1017.4
20260509101035 43 300 1.0 3.0 0.00 0.00 0.00 87 1017.4
20260509100543 43 304 1.0 2.0 0.00 0.00 0.00 87 1017.4
20260509100024 43 304 1.0 2.0 0.00 0.00 0.00 86 1017.2
20260509095530 44 288 0.0 2.0 0.00 0.00 0.00 87 1017.1
20260509095034 44 288 1.0 3.0 0.00 0.00 0.00 86 1017.1
20260509094557 44 288 2.0 3.0 0.00 0.00 0.00 85 1017.1
20260509094038 44 266 1.0 2.0 0.00 0.00 0.00 84 1017.0
20260509093540 44 213 0.0 4.0 0.00 0.00 0.00 84 1016.9
20260509093103 45 212 3.0 4.0 0.00 0.00 0.00 83 1016.7
20260509092545 45 247 0.0 0.0 0.00 0.00 0.00 82 1016.6
20260509092030 45 257 0.0 3.0 0.00 0.00 0.00 81 1016.3
20260509091533 45 257 1.0 3.0 0.00 0.00 0.00 80 1016.1
20260509091037 45 269 2.0 3.0 0.00 0.00 0.00 80 1016.1
20260509090539 45 281 2.0 3.0 0.00 0.00 0.00 80 1016.1
20260509090105 46 314 1.0 4.0 0.00 0.00 0.00 80 1016.0
20260509085549 46 283 3.0 4.0 0.00 0.00 0.00 80 1016.0
20260509085030 46 292 2.0 4.0 0.00 0.00 0.00 80 1016.0
20260509084536 46 295 1.0 5.0 0.00 0.00 0.00 80 1015.9
20260509084043 46 293 3.0 6.0 0.00 0.00 0.00 79 1015.9
20260509083547 46 317 2.0 6.0 0.00 0.00 0.00 80 1015.9
20260509083028 46 334 2.0 5.0 0.00 0.00 0.00 80 1015.8
20260509082613 46 339 3.0 6.0 0.00 0.00 0.00 80 1015.8
20260509082056 47 308 2.0 6.0 0.00 0.00 0.00 80 1015.9
20260509081537 47 320 3.0 5.0 0.00 0.00 0.00 80 1015.9
20260509081040 47 360 2.0 6.0 0.00 0.00 0.00 80 1015.9
20260509080541 47 344 2.0 7.0 0.00 0.16 0.00 80 1015.8
20260509080045 46 343 3.0 7.0 0.00 0.16 0.00 81 1015.9
20260509075527 46 342 3.0 6.0 0.00 0.16 0.00 83 1015.9
20260509075031 46 337 2.0 5.0 0.00 0.16 0.00 85 1015.9
20260509074535 45 332 1.0 3.0 0.00 0.16 0.00 85 1015.9
20260509074057 46 311 0.0 0.0 0.00 0.16 0.00 85 1015.9
20260509073558 46 309 0.0 0.0 0.00 0.16 0.00 85 1016.0
20260509073040 46 309 0.0 0.0 0.00 0.16 0.00 86 1016.1
20260509072528 45 309 0.0 0.0 0.00 0.16 0.00 86 1016.0
20260509072031 45 303 0.0 0.0 0.00 0.16 0.00 85 1016.0
20260509071534 45 303 0.0 0.0 0.00 0.16 0.00 85 1016.0
20260509071057 46 303 0.0 0.0 0.00 0.16 0.00 85 1015.9
20260509070538 46 303 0.0 0.0 0.00 0.39 0.00 84 1015.9
20260509070046 46 304 0.0 1.0 0.00 0.39 0.00 84 1016.0
20260509065528 46 309 1.0 1.0 0.00 0.39 0.00 84 1016.0
20260509065033 46 314 0.0 0.0 0.00 0.39 0.00 84 1016.1
20260509064537 46 314 0.0 0.0 0.00 0.39 0.00 83 1016.0
20260509064101 46 314 0.0 0.0 0.00 0.39 0.00 83 1015.8
20260509063543 47 314 0.0 3.0 0.00 0.39 0.00 83 1015.6
20260509063026 47 314 0.0 3.0 0.00 0.39 0.00 82 1015.8
20260509062612 47 315 2.0 5.0 0.00 0.39 0.00 82 1015.8
20260509062034 47 283 3.0 4.0 0.00 0.39 0.00 82 1015.6
20260509061537 47 290 2.0 7.0 0.00 0.39 0.00 81 1015.6
20260509061025 48 256 4.0 7.0 0.00 0.39 0.00 80 1015.4
20260509060528 48 283 3.0 5.0 0.00 0.63 0.00 79 1015.4
20260509060037 48 324 2.0 6.0 0.00 0.63 0.00 79 1015.3
20260509055603 48 309 4.0 6.0 0.00 0.63 0.00 80 1015.1
20260509055043 48 327 2.0 4.0 0.00 0.63 0.00 79 1014.8
20260509054527 48 360 2.0 3.0 0.00 0.63 0.00 79 1014.3
20260509054034 48 347 2.0 3.0 0.00 0.63 0.00 79 1014.3
20260509053539 48 338 1.0 3.0 0.00 0.63 0.00 79 1014.4
20260509053045 48 1 3.0 3.0 0.00 0.63 0.00 78 1014.5
20260509052526 49 1 2.0 4.0 0.00 0.63 0.00 78 1014.6
20260509052029 49 354 2.0 4.0 0.00 0.63 0.00 77 1014.8
20260509051535 49 1 2.0 4.0 0.00 0.63 0.00 77 1014.9
20260509051058 49 344 2.0 4.0 0.00 0.63 0.00 76 1014.7
20260509050524 49 358 3.0 4.0 0.00 1.18 0.00 76 1014.8
20260509050028 49 359 1.0 3.0 0.00 1.18 0.00 76 1014.8
20260509045533 49 326 1.0 3.0 0.00 1.18 0.00 76 1014.8
20260509045036 49 347 2.0 3.0 0.00 1.18 0.00 76 1014.7
20260509044540 50 1 2.0 3.0 0.00 1.18 0.00 75 1014.8
20260509044042 50 337 2.0 4.0 0.00 1.18 0.00 75 1014.8
20260509043526 50 344 2.0 5.0 0.00 1.18 0.00 74 1014.6
20260509043028 50 348 2.0 5.0 0.00 1.18 0.00 74 1014.5
20260509042551 50 4 3.0 5.0 0.00 1.18 0.00 74 1014.5
20260509042033 50 359 2.0 3.0 0.00 1.18 0.00 74 1014.5
20260509041540 50 353 1.0 3.0 0.00 1.18 0.00 74 1014.5
20260509041104 50 352 1.0 3.0 0.00 1.18 0.00 74 1014.5
20260509040524 50 342 0.0 2.0 0.00 1.54 0.00 73 1014.6
20260509040032 50 338 0.0 2.0 0.00 1.54 0.00 73 1014.3
20260509035536 50 325 1.0 2.0 0.00 1.54 0.00 73 1014.2
20260509035043 50 308 1.0 4.0 0.00 1.54 0.00 73 1014.2
20260509034527 50 337 2.0 5.0 0.00 1.54 0.00 72 1014.1
20260509034030 51 348 2.0 5.0 0.00 1.54 0.00 72 1013.9
20260509033532 51 355 2.0 4.0 0.00 1.54 0.00 72 1013.8
20260509033036 51 328 2.0 3.0 0.00 1.54 0.00 71 1013.9
20260509032558 51 359 1.0 5.0 0.00 1.54 0.00 71 1013.9
20260509032037 51 284 2.0 5.0 0.00 1.54 0.00 71 1014.1
20260509031542 51 328 1.0 4.0 0.00 1.54 0.00 71 1014.1
20260509031024 51 345 1.0 3.0 0.00 1.54 0.00 71 1014.1
20260509030548 51 356 2.0 4.0 0.00 1.54 0.39 70 1014.0
20260509030035 52 289 2.0 4.0 0.00 1.54 0.39 70 1013.9
20260509025540 52 1 2.0 4.0 0.00 1.54 0.39 69 1013.8
20260509025024 52 353 2.0 4.0 0.00 1.54 0.39 69 1013.8
20260509024534 52 336 2.0 4.0 0.00 1.54 0.39 69 1013.9
20260509024036 52 359 2.0 4.0 0.00 1.54 0.39 69 1013.8
20260509023538 52 359 2.0 4.0 0.00 1.54 0.39 69 1013.6
20260509023042 52 331 3.0 4.0 0.00 1.54 0.39 68 1013.4
20260509022544 52 330 1.0 4.0 0.00 1.54 0.39 68 1013.5
20260509022046 52 333 0.0 5.0 0.00 1.54 0.39 68 1013.5
20260509021527 53 338 2.0 6.0 0.00 1.54 0.39 68 1013.4
20260509021030 53 356 3.0 6.0 0.00 1.54 0.39 67 1013.2
20260509020555 53 1 3.0 5.0 0.00 1.54 0.39 67 1013.4
20260509020058 53 359 3.0 5.0 0.00 1.54 0.39 66 1013.4
20260509015540 53 359 3.0 5.0 0.00 1.54 0.39 66 1013.6
20260509015043 53 359 3.0 5.0 0.00 1.54 0.39 65 1013.6
20260509014525 53 340 3.0 6.0 0.00 1.54 0.39 66 1013.7
20260509014029 54 299 3.0 6.0 0.00 1.54 0.39 65 1013.5
20260509013555 54 338 1.0 4.0 0.00 1.54 0.39 65 1013.3
20260509013040 54 338 2.0 3.0 0.00 1.54 0.39 66 1013.3
20260509012541 54 359 1.0 6.0 0.00 1.54 0.39 65 1013.3
20260509012044 54 295 2.0 6.0 0.00 1.54 0.39 63 1013.2
20260509011544 54 329 2.0 5.0 0.00 1.54 0.39 64 1013.3
20260509011047 55 347 3.0 4.0 0.00 1.54 0.39 64 1013.4